Regional Weather Roundup
Issued by NWS Newport/Morehead, NC

Current Version | Previous Version | Text Only | Print | Product List | Glossary On
Versions: 1 2 3 4 5 6 7 8 9 10 11 12 13 14 15 16 17 18 19 20 21 22 23 24 25 26 27 28 29 30 31 32 33 34 35 36 37 38 39 40 41 42 43 44 45 46 47 48 49 50
000 ASUS42 KMHX 242113 RWRMHX WEATHER ROUNDUP FOR EASTERN NORTH CAROLINA NATIONAL WEATHER SERVICE NEWPORT/MOREHEAD CITY NC 500 PM EDT MON APR 24 2017 NOTE: "FAIR" INDICATES FEW OR NO CLOUDS BELOW 12,000 FEET WITH NO SIGNIFICANT WEATHER AND/OR OBSTRUCTIONS TO VISIBILITY NCZ015>017-031-032-045>047-102-103-242200- NORTH COAST CITY SKY/WX TMP DP RH WIND PRES REMARKS EDENTON CLOUDY 69 66 88 E5 29.80F ELIZABETH CITY CLOUDY 72 68 87 E8 29.81S KITTY HAWK CLOUDY 67 62 84 SE7 29.80S MANTEO PTSUNNY 71 64 79 SE13G18 29.81S $$ NCZ045>047-081-094-103-104-242200- CENTRAL COAST CITY SKY/WX TMP DP RH WIND PRES REMARKS FRISCO CLOUDY 72 59 63 SE28G39 29.77F HAZE $$ NCZ095-097-098-100-101-242200- SOUTHERN COAST CITY SKY/WX TMP DP RH WIND PRES REMARKS BEAUFORT LGT RAIN 69 67 93 SE20G36 29.70F FOG CEDAR ISLAND NOT AVBL JACKSONVILLE HVY RAIN 67 67 100 SE12G18 29.68F VSB 1 PINEY ISLAND N/A N/A N/A N/A SE30G38 29.73F FOG WILMINGTON HVY RAIN 68 68 100 SE7 29.65R VSB 3/4 $$ NCZ011>013-027>030-043-044-078>080-089-090>093-098-242200- COASTAL PLAIN CITY SKY/WX TMP DP RH WIND PRES REMARKS AHOSKIE LGT RAIN 63 63 99 NE10 29.80S CLINTON HVY RAIN 63 63 100 N5 29.69F ELIZABETHTOWN HVY RAIN 64 64 100 CALM 29.67S GOLDSBORO LGT RAIN 65 65 100 NE10 29.69F FOG GREENVILLE LGT RAIN 66 66 100 E12 29.78S HAVELOCK CLOUDY 70 65 84 E17 29.71F KENANSVILLE HVY RAIN 64 64 100 NE3 29.69F FOG KINSTON RAIN 66 66 100 E8 29.72F NEW BERN LGT RAIN 68 67 96 E8 29.72F RICHLANDS NOT AVBL ROCKY MOUNT HVY RAIN 63 63 100 NE9 29.75F FOG WASHINGTON LGT RAIN 66 65 96 E5 29.75F WHITEVILLE RAIN 64 62 96 N3 29.64F $$ AMZ130-135-150-152-154-156-158-170-250-252-270-ANZ085-086-088-633-658-670-242200- MARINE OBSERVATIONS STATION/POSITION TIME TEMP WIND PRES WAVE SWELL AIR SEA DIR/SP/G HT/PER HT/PER (UTC) (F) (DEG/KT/KT) (MB) (FT/S) (FT/S) CHESAPEAKE LIGHT NOT AVBL 64 E VA BEACH 2050 61 54 110/ 12/ 12 1011.3 6/ 6 5/ 6 DUCK 2048 64 62 90/ 15/ 17 1009.1 2 E DUCK 2100 61 N/A 5/ 6 2/12 OREGON INLET 2042 66 60 90/ 8/ 13 1009.0 13E OREGON INLT 2048 56 N/A 7/ 7 7/ 7 HATTERAS CG 2048 72 67 130/ 17/ 24 1007.6 DIAMOND BUOY 2050 75 79 130/ 29/ 37 1007.0 10/ 7 CAPE LOOKOUT 2100 69 110/ 26/ 30 1005.0 BEAUFORT LAB 2048 70 65 120/ 23/ 28 1004.8 30 SE NEW RVR IN 2008 71 150/ 25/ 35 1004.1 30 SE NEW RVR IN 2043 71 N/A 12/ 8 2/11 27 SE WRIGHTSVLE 2008 71 72 150/ 23/ 35 1003.7 5 SE WRIGHTSVLE 2008 68 69 140/ 14/ 21 1004.3 225 S CAPE HAT 2050 71 75 70/ 23/ 33 1001.9 11/ 8 41 SE CHARLESTON 2050 71 74 230/ 14/ 17 1002.3 7/ 8 7/ 8 $$

USA.gov is the U.S. government's official web portal to all federal, state and local government web resources and services.